QPF
0.00 0.01 0.08 0.07 0.03 0.01 0.02 0.00 0.07 0.11 0.03 0.02 0.05 0.08 0.07 0.09 0.04 0.04 0.06 0.05 0.08 0.11
0.00 0.00 0.03 0.13 0.09 0.01 0.08 0.03 0.02 0.01 0.02 0.03 0.06 0.09 0.13 0.14 0.11 0.14 0.11 0.06 0.05 0.12
0.00 0.00 0.01 0.05 0.02 0.01 0.01 0.04 0.11 0.14 0.09 0.08 0.08 0.06 0.13 0.12 0.11 0.09 0.10 0.12 0.05 0.16
0.00 0.00 0.00 0.00 0.00 0.01 0.00 0.02 0.07 0.08 0.07 0.07 0.04 0.02 0.01 0.02 0.05 0.12 0.13 0.13 0.15 0.16
0.00 0.00 0.00 0.00 0.00 0.00 0.00 0.01 0.02 0.03 0.02 0.04 0.05 0.04 0.03 0.03 0.06 0.13 0.17 0.14 0.13 0.18
0.00 0.00 0.00 0.00 0.00 0.00 0.00 0.01 0.03 0.03 0.04 0.03 0.04 0.06 0.07 0.05 0.06 0.07 0.12 0.21 0.18 0.15
0.00 0.00 0.00 0.00 0.00 0.00 0.00 0.00 0.01 0.02 0.03 0.03 0.02 0.01 0.01 0.02 0.02 0.01 0.03 0.13 0.11 0.13
0.00 0.00 0.00 0.00 0.00 0.00 0.00 0.00 0.00 0.02 0.02 0.01 0.01 0.00 0.00 0.01 0.01 0.00 0.00 0.05 0.16 0.52
0.00 0.00 0.00 0.00 0.00 0.00 0.02 0.01 0.01 0.02 0.02 0.01 0.00 0.00 0.00 0.00 0.00 0.00 0.00 0.00 0.07 0.19
0.00 0.00 0.00 0.00 0.01 0.03 0.04 0.04 0.04 0.05 0.06 0.02 0.00 0.00 0.00 0.00 0.00 0.01 0.01 0.00 0.00 0.01
0.00 0.00 0.00 0.00 0.01 0.02 0.02 0.03 0.04 0.03 0.01 0.00 0.00 0.00 0.00 0.00 0.02 0.04 0.02 0.01 0.00 0.00
0.00 0.00 0.00 0.01 0.03 0.05 0.03 0.01 0.01 0.00 0.00 0.00 0.00 0.00 0.00 0.00 0.01 0.05 0.07 0.01 0.00 0.00
0.00 0.00 0.00 0.02 0.04 0.07 0.02 0.01 0.01 0.00 0.00 0.00 0.00 0.00 0.00 0.00 0.00 0.00 0.04 0.07 0.02 0.00
0.00 0.00 0.00 0.01 0.02 0.01 0.02 0.07 0.02 0.01 0.00 0.00 0.00 0.00 0.00 0.00 0.00 0.00 0.00 0.02 0.01 0.00
MSLP
1008.46 1008.98 1009.32 1009.96 1010.09 1010.94 1011.66 1011.95 1012.16 1013.06 1013.28 1013.56 1013.56 1013.54 1013.56 1013.67 1013.27 1013.27 1013.57 1013.49 1013.79 1013.86
1007.83 1008.44 1008.75 1009.39 1009.96 1010.14 1011.08 1011.42 1011.82 1012.17 1012.64 1012.94 1013.00 1012.95 1013.05 1013.06 1012.85 1012.99 1013.02 1013.00 1013.27 1013.36
1007.50 1008.09 1008.38 1008.85 1009.45 1009.78 1010.21 1010.78 1011.40 1011.72 1011.97 1012.20 1012.32 1012.36 1012.31 1012.43 1012.28 1012.19 1012.03 1012.51 1012.63 1012.83
1006.68 1007.55 1008.22 1008.50 1009.10 1009.31 1009.66 1010.35 1010.73 1011.24 1011.39 1011.63 1011.73 1011.59 1011.66 1012.03 1011.89 1011.61 1011.67 1011.84 1012.00 1012.03
1006.27 1006.81 1007.45 1008.07 1008.54 1008.91 1009.39 1009.54 1009.87 1010.33 1010.70 1010.94 1010.97 1010.91 1011.24 1011.37 1011.13 1011.24 1011.39 1011.36 1011.42 1011.53
1005.96 1006.48 1006.83 1007.39 1007.75 1008.22 1008.59 1008.90 1009.09 1009.63 1009.83 1010.12 1010.39 1010.67 1010.90 1010.89 1010.88 1010.87 1010.84 1011.06 1011.24 1011.32
1005.42 1005.86 1006.16 1007.03 1007.34 1007.68 1008.02 1008.39 1008.63 1009.07 1009.30 1009.71 1009.99 1010.08 1010.15 1010.30 1010.56 1010.66 1010.88 1011.03 1011.20 1011.25
1005.19 1005.25 1005.95 1006.63 1006.97 1007.41 1007.52 1008.00 1008.45 1008.63 1008.80 1009.14 1009.46 1009.44 1009.85 1010.20 1010.62 1010.92 1011.29 1011.52 1011.64 1011.86
1005.39 1005.40 1005.57 1005.98 1006.42 1006.88 1007.44 1007.58 1007.87 1008.26 1008.47 1008.84 1008.73 1008.64 1009.45 1009.95 1010.47 1010.85 1011.09 1011.54 1012.14 1012.32
1004.90 1005.30 1005.68 1006.10 1006.49 1006.63 1007.01 1007.43 1007.65 1007.92 1008.54 1008.72 1008.83 1009.87 1009.98 1010.16 1010.05 1010.49 1010.66 1010.96 1011.49 1012.26
1004.59 1005.15 1005.68 1005.99 1006.46 1006.82 1007.02 1007.18 1007.38 1007.76 1007.67 1008.00 1008.93 1009.77 1010.31 1010.54 1010.38 1010.18 1010.43 1010.65 1011.08 1011.57
1004.17 1004.54 1004.77 1005.20 1005.55 1005.92 1006.42 1006.64 1006.96 1007.22 1007.52 1007.87 1008.35 1009.29 1010.00 1010.44 1009.93 1009.99 1010.24 1010.55 1010.99 1011.44
1004.04 1004.25 1004.48 1005.03 1005.24 1005.50 1005.69 1006.09 1006.07 1006.59 1007.20 1007.84 1008.31 1009.50 1009.78 1009.95 1009.22 1009.00 1009.70 1010.34 1010.77 1011.39
1003.74 1004.16 1004.34 1004.71 1005.07 1005.67 1005.78 1005.63 1005.77 1005.91 1006.46 1007.38 1008.15 1009.09 1009.62 1009.88 1009.61 1008.72 1009.05 1009.40 1010.29 1010.77
Thickness
5803 5798 5795 5789 5790 5783 5776 5774 5775 5766 5765 5761 5761 5763 5764 5765 5770 5772 5769 5771 5769 5770
5805 5800 5796 5792 5788 5787 5779 5777 5773 5771 5767 5765 5766 5766 5765 5766 5769 5770 5770 5770 5769 5769
5805 5800 5798 5794 5789 5787 5784 5779 5772 5770 5768 5767 5767 5767 5769 5767 5770 5772 5774 5771 5770 5768
5809 5801 5796 5792 5788 5787 5785 5779 5774 5770 5769 5767 5766 5768 5767 5765 5767 5771 5771 5773 5772 5772
5810 5806 5799 5793 5791 5789 5783 5783 5780 5776 5773 5770 5769 5769 5766 5764 5769 5768 5768 5771 5773 5773
5809 5804 5801 5797 5796 5792 5789 5786 5786 5781 5777 5775 5772 5769 5767 5767 5767 5768 5769 5768 5767 5769
5810 5806 5805 5799 5797 5795 5793 5789 5787 5783 5780 5777 5775 5773 5771 5770 5766 5766 5765 5765 5764 5764
5811 5810 5805 5799 5797 5794 5794 5790 5786 5784 5782 5780 5777 5777 5772 5768 5764 5761 5757 5756 5757 5757
5808 5807 5805 5802 5799 5795 5790 5789 5787 5783 5780 5777 5780 5780 5773 5769 5763 5760 5757 5752 5747 5745
5811 5806 5803 5798 5794 5793 5790 5787 5784 5782 5777 5775 5775 5765 5763 5762 5763 5758 5758 5756 5751 5743
5812 5805 5801 5798 5791 5787 5785 5783 5782 5778 5781 5778 5770 5761 5755 5754 5757 5758 5756 5754 5753 5748
5813 5807 5805 5800 5798 5795 5789 5785 5781 5778 5775 5772 5769 5759 5753 5749 5754 5752 5751 5751 5748 5747
5811 5807 5803 5798 5796 5793 5792 5787 5786 5780 5774 5767 5763 5750 5749 5749 5755 5753 5747 5745 5746 5742
5806 5801 5800 5795 5790 5783 5782 5785 5784 5783 5777 5767 5760 5749 5742 5739 5744 5751 5747 5744 5738 5740